Home > Weather > Husum > Past weeks

Flag for Germany Past Weather in Husum, Schleswig-Holstein, Germany — Yesterday and Last 2 Weeks

Now
61 °F

Sprinkles. Broken clouds.


Feels Like: 61 °F
Forecast: 57 / 62 °F
Wind: 10 mph from South

Location: Schleswig-Jagel

Current Time: Jul 1, 2016 at 8:25:34 AM

Latest Report: Jul 1, 2016 at 7:20 AM


Visibility: 4 mi

Pressure: 29.80 "Hg

Humidity: 88%

Dew Point: 57 °F

Location of HusumLocation

Past Weather in Husum — Graph

°F

Husum Temperature Yesterday

Maximum temperature yesterday: 66 °F (at 5:20 PM)
Minimum temperature yesterday: 57 °F (at 12:20 AM)
Average temperature yesterday: 61 °F

High & Low Weather Summary for the Past Weeks

 TemperatureHumidityPressure
High84 °F (Jun 23, 3:20 PM)100% (Jun 20, 11:20 PM)30.21 "Hg (Jun 20, 11:20 PM)
Low54 °F (Jun 27, 1:20 AM)40% (Jun 28, 4:20 PM)29.74 "Hg (Jun 29, 9:20 AM)
Average63 °F79%29.96 "Hg
* Reported Jun 20 8:20 AM — Jul 1 6:20 AM, Husum, Weather by CustomWeather, © 2016

Note: Actual official high and low records may vary slightly from our data, if they occured in-between our weather recording intervals... More about our weather records

Advertising

Husum Weather History for the Previous 24 Hours

Scroll right to see more
 ConditionsComfort  
Time TempWeatherWind HumidityBarometerVisibility
6:20 AM
Fri, Jul 1
59 °FPartly sunny.8 mph94%29.80 "Hg6 mi
5:20 AM59 °FPartly cloudy.7 mph94%29.80 "Hg6 mi
4:20 AM61 °FCool.8 mph88%29.80 "Hg3 mi
3:20 AM61 °FCool.12 mph94%29.80 "Hg2 mi
2:20 AM61 °FCool.12 mph94%29.80 "Hg3 mi
1:20 AM61 °FCool.10 mph94%29.80 "Hg3 mi
12:20 AM61 °FCool.8 mph88%29.80 "Hg3 mi
11:20 PM
Thu, Jun 30
61 °FCool.8 mph88%29.83 "Hg3 mi
10:20 PM59 °FCool.6 mph94%29.83 "Hg3 mi
9:20 PM61 °FCool.3 mph88%29.83 "Hg2 mi
8:20 PM63 °FMild.6 mph77%29.83 "Hg4 mi
7:20 PM64 °FMild.6 mph73%29.83 "Hg4 mi
6:20 PM64 °FMild.8 mph73%29.83 "Hg4 mi
5:20 PM66 °FMild.12 mph73%29.83 "Hg3 mi
4:20 PM64 °FBroken clouds.10 mph78%29.83 "HgN/A
3:20 PM63 °FBroken clouds.12 mph88%29.83 "HgN/A
2:46 PM63 °FRain. Fog.18 mph77%29.83 "Hg3 mi
2:20 PM63 °FBroken clouds.14 mph88%29.83 "HgN/A
1:20 PM63 °FBroken clouds.13 mph83%29.83 "HgN/A
12:20 PM61 °FLight rain. Broken clouds.9 mph88%29.80 "HgN/A
11:20 AM61 °FLight rain. Broken clouds.13 mph88%29.80 "HgN/A
10:20 AM59 °FLight rain. Broken clouds.9 mph88%29.80 "HgN/A
9:20 AM59 °FLight rain. Broken clouds.6 mph82%29.80 "HgN/A
8:20 AM61 °FBroken clouds.6 mph77%29.80 "HgN/A
Weather by CustomWeather, © 2016

See weather overviewHow to use our weather pages